Flag for Switzerland Weather past 2 weeks in Schaffhausen, Schaffhausen, Switzerland

Now
47 °F

Cool.


Feels Like: 41 °F
Forecast: 37 / 42 °F
Wind: 15 mph from West

Location: Zurich-Kloten

Current Time: Apr 1, 2015 at 12:29:51 AM

Latest Report: Mar 31, 2015 at 10:00 PM


Visibility: N/A

Pressure: 30.03 "Hg

Humidity: 63%

Dew point: 35 °F

Location of SchaffhausenLocation

Historic Weather in Schaffhausen — Graph

°F

Schaffhausen temperature yesterday

Maximum temperature yesterday: 58 °F (at 10:00 AM)
Minimum temperature yesterday: 47 °F (at 10:00 PM)
Average temperature yesterday: 52 °F

Past Weeks' High & Low Weather Summary

 TemperatureHumidityPressure
High64 °F (Mar 18, 4:00 PM)100% (Mar 20, 5:00 PM)30.34 "Hg (Mar 20, 5:00 PM)
Low29 °F (Mar 28, 5:00 AM)31% (Mar 18, 4:00 PM)29.58 "Hg (Mar 25, 2:00 PM)
Average46 °F72%30.01 "Hg
* Reported Mar 16 9:00 PM — Mar 31 10:00 PM, Schaffhausen, Weather by CustomWeather, © 2015

Note: Actual official high and low records may vary slightly from our data, if they occured in-between our weather recording intervals... More about our weather records

Advertising

Schaffhausen weather history for previous 24 hours

 ConditionsComfort  
Time TempWeatherWind HumidityBarometerVisibility
10:00 PM
Tue, Mar 31
47 °FCool.15 mph63%30.03 "HgN/A
9:00 PM48 °FCool.16 mph58%30.01 "HgN/A
8:00 PM49 °FPassing clouds.17 mph65%29.98 "Hg19 mi
7:00 PM52 °FCool.14 mph63%29.93 "HgN/A
6:00 PM52 °FCool.20 mph67%29.90 "HgN/A
5:00 PM49 °FCool.23 mph79%29.90 "HgN/A
4:00 PM54 °FCool.18 mph57%29.85 "HgN/A
3:00 PM56 °FRefreshingly cool.30 mph58%29.81 "HgN/A
2:00 PM55 °FOvercast.26 mph66%29.82 "Hg25 mi
1:00 PM56 °FCool.36 mph62%29.81 "HgN/A
12:00 PM58 °FRefreshingly cool.30 mph58%29.78 "HgN/A
11:00 AM57 °FOvercast.30 mph57%29.79 "Hg31 mi
10:00 AM58 °FRefreshingly cool.28 mph57%29.77 "HgN/A
9:00 AM56 °FCool.28 mph64%29.81 "HgN/A
8:00 AM54 °FOvercast.24 mph70%29.81 "Hg31 mi
7:00 AM53 °FCool.21 mph76%29.80 "HgN/A
6:00 AM53 °FCool.25 mph75%29.80 "HgN/A
4:00 AM52 °FCool.18 mph77%29.88 "HgN/A
3:00 AM49 °FCool.13 mph81%29.93 "HgN/A
2:00 AM48 °FLight rain. Overcast.17 mph79%29.96 "Hg19 mi
1:00 AM48 °FCool.8 mph73%29.97 "HgN/A
12:00 AM49 °FCool.9 mph63%30.01 "HgN/A
Weather by CustomWeather, © 2015

See weather overviewHow to use our weather pages